La Porte, IN

3:01 AM CDT on July 24, 2016 (GMT -0500)
La Porte Municipal

Weather History for KPPO - February, 2013

Change the Weather History Date:

Tuesday, February 19, 2013

  Actual Average (KVPZ) Record (KVPZ)
Temperature  
Mean Temperature 24 °F 29 °F  
Max Temperature 33 °F 36 °F 65 °F (2016)
Min Temperature 14 °F 21 °F -7 °F (2015)
Degree Days  
Heating Degree Days 42 36  
Month to date heating degree days 737  
Since 1 July heating degree days 4422  
Cooling Degree Days 0 0  
Month to date cooling degree days 0  
Year to date cooling degree days 0  
Moisture  
Dew Point 12 °F    
Average Humidity 77    
Maximum Humidity 96    
Minimum Humidity 66    
Precipitation  
Precipitation 0.00 in 0.06 in 0.66 in (2002)
Month to date precipitation 0.95  
Year to date precipitation 2.70  
Sea Level Pressure  
Sea Level Pressure 29.85 in    
Wind  
Wind Speed 19 mph (West)    
Max Wind Speed 29 mph    
Max Gust Speed 38 mph    
Visibility 7 miles    
Events Snow    
T = Trace of Precipitation, MM = Missing Value Source: NWS Daily Summary

Daily Weather History Graph

Daily Weather History Graph

Search for Another Location

Airport or City:

Trip Planner

Search our weather history database for the weather conditions in past years. The results will help you decide how hot, cold, wet, or windy it might be!

Date:

Astronomy

Feb. 19, 2013 Rise Set
Actual Time 6:36 AM CST 5:25 PM CST
Civil Twilight 6:08 AM CST 5:54 PM CST
Nautical Twilight 5:35 AM CST 6:26 PM CST
Astronomical Twilight 5:03 AM CST 6:58 PM CST
Moon 11:54 AM CST (2/19) 2:10 AM CST (2/19)
Length of Visible Light 11h 46m
Length of Day
10h 49m
Waxing Gibbous, 67% of the Moon is Illuminated
Feb 19
Waxing Gibbous
Feb 25
Full
Mar 4
Last Quarter
Mar 11
New
Mar 19
First Quarter

Hourly Weather History & Observations

Time (CST) Temp. Windchill Dew Point Humidity Pressure Visibility Wind Dir Wind Speed Gust Speed Precip Events Conditions
12:15 AM 33.1 °F 22.6 °F 32.0 °F 96% 29.52 in 5.0 mi West 16.1 mph 26.5 mph N/A   Overcast
12:35 AM 33.4 °F 22.7 °F 32.0 °F 94% 29.54 in 10.0 mi West 17.3 mph 27.6 mph N/A   Overcast
12:55 AM 33.1 °F 20.9 °F 31.5 °F 94% 29.55 in 10.0 mi West 21.9 mph 31.1 mph N/A   Overcast
1:15 AM 31.8 °F 19.9 °F 29.7 °F 92% 29.56 in 10.0 mi West 19.6 mph 28.8 mph N/A   Overcast
1:35 AM 31.1 °F 18.9 °F 28.9 °F 92% 29.56 in 10.0 mi West 19.6 mph 24.2 mph N/A   Overcast
1:55 AM 29.8 °F 15.7 °F 26.8 °F 88% 29.58 in 10.0 mi West 25.3 mph 38.0 mph N/A   Overcast
2:15 AM 28.4 °F 14.1 °F 25.3 °F 88% 29.60 in 10.0 mi West 24.2 mph 29.9 mph N/A   Overcast
2:35 AM 27.5 °F 13.9 °F 24.4 °F 88% 29.62 in 10.0 mi West 20.7 mph 26.5 mph N/A   Overcast
2:55 AM 26.6 °F 13.4 °F 23.5 °F 88% 29.63 in 10.0 mi West 18.4 mph 28.8 mph N/A   Overcast
3:15 AM 25.0 °F 11.3 °F 21.4 °F 86% 29.64 in 10.0 mi West 18.4 mph 28.8 mph N/A   Overcast
3:35 AM 24.4 °F 9.2 °F 20.3 °F 84% 29.64 in 10.0 mi West 23.0 mph 31.1 mph N/A   Overcast
3:55 AM 23.7 °F 9.3 °F 19.4 °F 84% 29.65 in 10.0 mi WSW 19.6 mph 32.2 mph N/A   Overcast
4:15 AM 22.8 °F 5.4 °F 18.5 °F 83% 29.66 in 7.0 mi West 28.8 mph 35.7 mph N/A   Overcast
4:35 AM 22.6 °F 8.7 °F 17.1 °F 79% 29.67 in 10.0 mi West 17.3 mph 32.2 mph N/A   Overcast
4:55 AM 21.7 °F 6.3 °F 16.5 °F 80% 29.68 in 10.0 mi West 20.7 mph 32.2 mph N/A   Overcast
5:15 AM 21.0 °F 6.6 °F 15.1 °F 78% 29.69 in 10.0 mi WSW 17.3 mph 32.2 mph N/A   Overcast
5:55 AM 19.9 °F 5.2 °F 14.0 °F 78% 29.70 in 7.0 mi West 17.3 mph 25.3 mph N/A Snow Light Snow
6:35 AM 18.9 °F 2.9 °F 12.0 °F 75% 29.71 in 10.0 mi West 19.6 mph 28.8 mph N/A Snow Light Snow
6:55 AM 18.7 °F 1.1 °F 12.4 °F 76% 29.72 in 7.0 mi West 24.2 mph 29.9 mph N/A Snow Light Snow
7:15 AM 18.1 °F 3.4 °F 11.3 °F 75% 29.73 in 7.0 mi West 16.1 mph 29.9 mph N/A Snow Light Snow
7:35 AM 17.6 °F 1.3 °F 11.3 °F 76% 29.74 in 7.0 mi West 19.6 mph 32.2 mph N/A Snow Light Snow
7:55 AM 17.2 °F 0.4 °F 10.8 °F 76% 29.75 in 7.0 mi WSW 20.7 mph 29.9 mph N/A Snow Light Snow
8:15 AM 16.7 °F 0.5 °F 10.2 °F 76% 29.76 in 5.0 mi West 18.4 mph 26.5 mph N/A Snow Light Snow
8:35 AM 16.3 °F -0.8 °F 10.8 °F 79% 29.77 in - West 20.7 mph 28.8 mph N/A   Overcast
8:55 AM 16.0 °F -2.1 °F 8.1 °F 71% 29.78 in - West 23.0 mph 33.4 mph N/A   Overcast
9:15 AM 16.2 °F -1.0 °F 7.9 °F 70% 29.79 in - West 20.7 mph 32.2 mph N/A   Overcast
9:35 AM 16.5 °F -0.1 °F 7.9 °F 69% 29.79 in - West 19.6 mph 32.2 mph N/A   Overcast
9:55 AM 16.2 °F -1.0 °F 9.9 °F 76% 29.81 in - West 20.7 mph 27.6 mph N/A   Overcast
10:15 AM 16.2 °F -1.0 °F 10.2 °F 77% 29.82 in 2.0 mi West 20.7 mph 28.8 mph N/A Snow Light Snow
10:35 AM 16.0 °F -1.3 °F 8.6 °F 73% 29.83 in 5.0 mi West 20.7 mph 28.8 mph N/A Snow Light Snow
10:55 AM 15.8 °F -1.5 °F 9.3 °F 76% 29.83 in 2.0 mi West 20.7 mph 27.6 mph N/A Snow Light Snow
11:15 AM 15.8 °F -2.7 °F 8.8 °F 74% 29.84 in 2.0 mi West 24.2 mph 31.1 mph N/A Snow Light Snow
11:35 AM 15.8 °F -1.9 °F 7.9 °F 71% 29.85 in 5.0 mi West 21.9 mph 29.9 mph N/A Snow Light Snow
11:55 AM 16.2 °F -0.6 °F 9.0 °F 73% 29.84 in 3.0 mi West 19.6 mph 29.9 mph N/A Snow Light Snow
12:35 PM 16.2 °F -1.8 °F 7.7 °F 69% 29.86 in 7.0 mi West 23.0 mph 28.8 mph N/A   Overcast
12:55 PM 16.0 °F 0.1 °F 7.5 °F 69% 29.86 in 7.0 mi West 17.3 mph 25.3 mph N/A   Overcast
1:15 PM 16.2 °F -1.0 °F 7.5 °F 69% 29.87 in 10.0 mi West 20.7 mph 28.8 mph N/A   Overcast
1:35 PM 15.8 °F -1.5 °F 7.2 °F 69% 29.88 in 10.0 mi West 20.7 mph 31.1 mph N/A   Overcast
1:55 PM 16.2 °F -1.4 °F 7.7 °F 69% 29.89 in 7.0 mi West 21.9 mph 27.6 mph N/A Snow Light Snow
2:15 PM 16.7 °F -1.1 °F 7.7 °F 68% 29.90 in 10.0 mi West 23.0 mph 28.8 mph N/A   Overcast
2:35 PM 16.3 °F 0.1 °F 6.8 °F 66% 29.91 in 10.0 mi West 18.4 mph 32.2 mph N/A   Overcast
2:55 PM 15.8 °F -2.3 °F 7.5 °F 70% 29.92 in 7.0 mi West 23.0 mph 29.9 mph N/A   Overcast
3:15 PM 15.8 °F -0.2 °F 7.0 °F 68% 29.93 in 10.0 mi West 17.3 mph 27.6 mph N/A   Overcast
3:35 PM 16.0 °F -0.9 °F 7.2 °F 68% 29.94 in 10.0 mi West 19.6 mph 26.5 mph N/A   Overcast
3:55 PM 15.6 °F 0.1 °F 7.3 °F 70% 29.96 in 7.0 mi West 16.1 mph 26.5 mph N/A   Overcast
4:15 PM 15.3 °F -2.6 °F 8.2 °F 74% 29.97 in 3.0 mi West 21.9 mph 27.6 mph N/A Snow Light Snow
4:35 PM 14.9 °F -1.3 °F 7.7 °F 73% 29.98 in 7.0 mi West 17.3 mph 28.8 mph N/A   Overcast
4:55 PM 14.9 °F -0.3 °F 7.9 °F 74% 29.99 in 10.0 mi West 15.0 mph 24.2 mph N/A   Overcast
5:15 PM 14.5 °F -1.8 °F 7.9 °F 75% 29.99 in 5.0 mi West 17.3 mph 25.3 mph N/A   Haze
5:35 PM 14.5 °F -2.3 °F 8.6 °F 77% 30.00 in 3.0 mi West 18.4 mph 26.5 mph N/A Snow Light Snow
6:35 PM 14.4 °F -1.0 °F 9.9 °F 82% 30.03 in 1.8 mi West 15.0 mph 20.7 mph N/A Snow Light Snow
6:55 PM 14.0 °F -1.4 °F 10.2 °F 85% 30.04 in 1.8 mi West 15.0 mph 21.9 mph N/A Snow Light Snow
7:15 PM 14.0 °F -0.2 °F 10.8 °F 87% 30.05 in 1.8 mi West 12.7 mph 17.3 mph N/A Snow Light Snow
7:55 PM 14.5 °F 0.5 °F 8.6 °F 77% 30.06 in 4.0 mi West 12.7 mph 23.0 mph N/A Snow Light Snow
8:15 PM 14.7 °F 2.9 °F 9.3 °F 79% 30.06 in 3.0 mi WNW 9.2 mph 17.3 mph N/A Snow Light Snow
8:35 PM 14.7 °F 3.8 °F 8.6 °F 77% 30.07 in 3.0 mi WNW 8.1 mph 16.1 mph N/A Snow Light Snow
8:55 PM 14.7 °F 3.8 °F 7.7 °F 74% 30.08 in 5.0 mi WNW 8.1 mph - N/A Snow Light Snow
9:15 PM 14.9 °F 0.9 °F 7.5 °F 73% 30.08 in 7.0 mi West 12.7 mph 19.6 mph N/A Snow Light Snow
9:35 PM 14.7 °F 2.9 °F 7.7 °F 74% 30.09 in 7.0 mi WNW 9.2 mph 18.4 mph N/A Snow Light Snow
9:55 PM 14.9 °F 3.1 °F 7.7 °F 73% 30.09 in 7.0 mi West 9.2 mph - N/A Snow Light Snow
10:15 PM 14.7 °F 0.7 °F 8.6 °F 77% 30.09 in 5.0 mi WNW 12.7 mph 18.4 mph N/A Snow Light Snow
10:35 PM 14.7 °F 2.1 °F 7.7 °F 74% 30.09 in 5.0 mi WNW 10.4 mph 23.0 mph N/A Snow Light Snow
10:55 PM 14.5 °F 1.9 °F 8.6 °F 77% 30.10 in 5.0 mi West 10.4 mph 21.9 mph N/A Snow Light Snow
11:15 PM 14.7 °F 2.1 °F 8.1 °F 75% 30.10 in 7.0 mi WNW 10.4 mph 18.4 mph N/A Snow Light Snow
11:35 PM 14.5 °F 2.7 °F 7.7 °F 74% 30.11 in 5.0 mi WNW 9.2 mph 25.3 mph N/A Snow Light Snow
11:55 PM 14.5 °F 1.9 °F 8.6 °F 77% 30.11 in 3.0 mi WNW 10.4 mph 20.7 mph N/A Snow Light Snow